Regional Weather Roundup
Issued by NWS

Home | Current Version | Previous Version | Graphics & Text | Print | Product List | Glossary On
Versions: 1 2 3 4 5 6 7 8 9 10 11 12 13 14 15 16 17 18 19 20 21 22 23 24 25 26 27 28 29 30 31 32 33 34 35 36 37 38 39 40 41 42 43 44 45 46 47 48 49 50
000
ASUS43 KFSD 221410
RWRSD

WEATHER ROUNDUP FOR SOUTH DAKOTA
NATIONAL WEATHER SERVICE SIOUX FALLS SD
900 AM CDT THU JUN 22 2017

NOTE: "FAIR" INDICATES FEW OR NO CLOUDS BELOW 12,000 FEET WITH NO
SIGNIFICANT WEATHER AND/OR OBSTRUCTIONS TO VISIBILITY.


SDZ001>005-009-010-012>017-221500-
NORTHWEST AND NORTH CENTRAL SOUTH DAKOTA

CITY           SKY/WX    TMP DP  RH WIND       PRES   REMARKS
BUFFALO          N/A     62  44  51 S7        29.87R
FAITH            N/A     58  47  66 NE17      29.88R
MOBRIDGE       CLOUDY    65  45  48 N18G24    29.80S
$$

SDZ012>016-024>037-041>051-057-063-072>074-221500-
SOUTHWEST AND SOUTH CENTRAL SOUTH DAKOTA

CITY           SKY/WX    TMP DP  RH WIND       PRES   REMARKS
RAPID CTY ARPT MOSUNNY   65  51  60 N15       29.89R
PIERRE         CLOUDY    55  52  89 NE9       29.77R
CUSTER         PTSUNNY   66  46  48 NE10      29.96R
ELLSWORTH AFB  MOSUNNY   64  52  65 N15       29.90R
PHILIP         CLOUDY    63  57  81 N10       29.83R
PINE RIDGE     SUNNY     65  50  58 NE13      29.85R
SPEARFISH      CLOUDY    55  50  82 NW15      29.99R
WINNER         CLOUDY    66  57  72 N9        29.79R
$$

SDZ004>011-016>023-039-040-221500-
NORTHEAST SOUTH DAKOTA

CITY           SKY/WX    TMP DP  RH WIND       PRES   REMARKS
ABERDEEN       CLOUDY    60  55  83 N9        29.75S
WATERTOWN      RAIN      58  56  93 NE7       29.74R FOG
BROOKINGS      CLOUDY    64  58  80 NE3       29.73R
SISSETON         N/A     61  58  90 N5        29.72R
$$

SDZ017-020-022-023-036>040-048>070-221500-
SOUTHEAST SOUTH DAKOTA

CITY           SKY/WX    TMP DP  RH WIND       PRES   REMARKS
SIOUX FALLS    CLOUDY    71  63  75 E17G25    29.68F
HURON          TSTM      58  58 100 N10       29.69F
CHAMBERLAIN    CLOUDY    65  60  86 N8        29.73S
MITCHELL       CLOUDY    67  59  75 NE6       29.70R
$$

ABBREVIATIONS USED IN REMARKS
   TC - TEMPERATURE IN CELSIUS
  WCI - WIND CHILL INDEX
   HX - HEAT INDEX
  VSB - VISIBILITY





USA.gov is the U.S. government's official web portal to all federal, state and local government web resources and services.